This demonstration page uses our WeatherBlox Daily Observations layout. Learn more.

Left ArrowRight Arrow

39.51506, -84.39828

Hourly Observations for October 24, 2018

Temp ( °F °C ) Dew Point ( °F °C ) Humidity (%) Winds ( mph kmh ) Pressure ( in mb ) Visibility ( mi km ) Precip ( " mm )
12:15 am 00:15 Clear 42 5.4 35 1.8 78 78 NNE 6 9 30.33 1027 10 16.0934 0 0
12:35 am 00:35 Clear 41 5.1 35 1.7 79 79 NNE 5 7 30.33 1027 10 16.0934 0 0
12:55 am 00:55 Clear 41 4.9 35 1.6 79 79 NNE 3 6 30.33 1027 10 16.0934 0 0
1:15 am 01:15 Clear 40 4.6 35 1.6 81 81 Calm 30.33 1027 10 16.0934 0 0
1:35 am 01:35 Clear 40 4.2 34 1.3 82 82 Calm 30.36 1028 10 16.0934 0 0
1:55 am 01:55 Clear 40 4.2 35 1.5 83 83 Calm 30.36 1028 10 16.0934 0 0
2:15 am 02:15 Clear 38 3.4 34 1.1 85 85 NNE 5 7 30.36 1028 10 16.0934 0 0
2:35 am 02:35 Clear 37 2.7 33 0.8 87 87 NNE 5 7 30.36 1028 10 16.0934 0 0
2:55 am 02:55 Clear 38 3.2 34 1.3 88 88 NNE 3 6 30.36 1028 10 16.0934 0 0
3:15 am 03:15 Clear 38 3.1 34 1.3 88 88 NNE 3 6 30.36 1028 10 16.0934 0 0
3:35 am 03:35 Clear 37 2.5 33 0.8 89 89 NNE 3 6 30.36 1028 10 16.0934 0 0
3:55 am 03:55 Clear 38 3.5 35 1.6 88 88 N 5 7 30.36 1028 10 16.0934 0 0
4:15 am 04:15 Clear 37 2.9 35 1.4 90 90 N 3 6 30.36 1028 10 16.0934 0 0
4:35 am 04:35 Clear 36 2.1 33 0.7 91 91 N 6 9 30.36 1028 10 16.0934 0 0
4:55 am 04:55 Clear 36 2.1 33 0.8 91 91 N 7 11 30.36 1028 10 16.0934 0 0
5:15 am 05:15 Clear 36 2.1 34 0.9 92 92 N 6 9 30.36 1028 10 16.0934 0 0
5:35 am 05:35 Clear 36 2.1 33 0.8 91 91 N 6 9 30.39 1029 10 16.0934 0 0
5:55 am 05:55 Clear 36 2 34 1 93 93 N 6 9 30.39 1029 10 16.0934 0 0
6:15 am 06:15 Clear 36 2.2 33 0.8 91 91 N 5 7 30.39 1029 10 16.0934 0 0
6:35 am 06:35 Clear 35 1.9 33 0.6 91 91 Calm 30.39 1029 10 16.0934 0 0
6:55 am 06:55 Clear 35 1.8 33 0.5 91 91 Calm 30.39 1029 10 16.0934 0 0
7:15 am 07:15 Clear 34 1.2 32 0.1 92 92 NNE 3 6 30.39 1029 10 16.0934 0 0
7:35 am 07:35 Clear 35 1.5 33 0.3 92 92 NNE 3 6 30.39 1029 10 16.0934 0 0
7:55 am 07:55 Clear 35 1.5 32 0.2 91 91 N 5 7 30.39 1029 10 16.0934 0 0
8:15 am 08:15 Sunny 35 1.6 32 0.1 90 90 Calm 30.42 1030 10 16.0934 0 0
8:35 am 08:35 Sunny 36 2 32 0.2 88 88 Calm 30.42 1030 10 16.0934 0 0
8:55 am 08:55 Sunny 36 2.4 33 0.6 88 88 NNE 3 6 30.42 1030 10 16.0934 0 0
9:10 am 09:10 Sunny 38 3.1 34 0.9 86 86 NNE 7 11 30.42 1030 10 16.0934 0 0
9:35 am 09:35 Sunny 39 4.1 34 1.3 82 82 NNE 9 15 30.45 1031 10 16.0934 0 0
9:55 am 09:55 Sunny 40 4.4 34 1.2 80 80 NE 7 11 30.45 1031 10 16.0934 0 0
10:15 am 10:15 Sunny 42 5.3 35 1.6 77 77 NNE 8 13 30.45 1031 10 16.0934 0 0
10:35 am 10:35 Sunny 43 5.9 35 1.9 76 76 NE 6 9 30.45 1031 10 16.0934 0 0
10:55 am 10:55 Sunny 44 6.6 36 2 73 73 NE 7 11 30.45 1031 10 16.0934 0 0
11:15 am 11:15 Sunny 46 7.6 36 2.3 69 69 ENE 6 9 30.42 1030 10 16.0934 0 0
11:35 am 11:35 Sunny 47 8.1 36 2.3 67 67 NNE 7 11 30.42 1030 10 16.0934 0 0
11:55 am 11:55 Sunny 48 8.7 35 1.9 63 63 ENE 6 9 30.42 1030 10 16.0934 0 0
12:15 pm 12:15 Sunny 48 9 35 1.5 60 60 NNE 5 7 30.42 1030 10 16.0934 0 0
12:35 pm 12:35 Sunny 49 9.7 35 1.5 57 57 NE 7 11 30.42 1030 10 16.0934 0 0
12:55 pm 12:55 Sunny 50 9.8 35 1.5 57 57 NNE 8 13 30.39 1029 10 16.0934 0 0
1:15 pm 13:15 Sunny 51 10.3 34 1 53 53 NE 5 7 30.39 1029 10 16.0934 0 0
1:35 pm 13:35 Sunny 51 10.8 33 0.8 50 50 NE 5 7 30.39 1029 10 16.0934 0 0
1:55 pm 13:55 Sunny 52 11.3 34 0.9 49 49 N 6 9 30.39 1029 10 16.0934 0 0
2:15 pm 14:15 Sunny 53 11.7 34 1.1 48 48 ENE 7 11 30.36 1028 10 16.0934 0 0
2:35 pm 14:35 Sunny 53 11.9 31 -0.3 43 43 NNW 6 9 30.36 1028 10 16.0934 0 0
2:55 pm 14:55 Sunny 54 12.4 31 -0.8 40 40 NNW 8 13 30.36 1028 10 16.0934 0 0
3:15 pm 15:15 Sunny 54 12.3 31 -0.7 41 41 NE 8 13 30.36 1028 10 16.0934 0 0
3:35 pm 15:35 Sunny 55 12.6 31 -0.3 41 41 NE 6 9 30.33 1027 10 16.0934 0 0
3:55 pm 15:55 Sunny 54 12.4 30 -1.2 39 39 NE 6 9 30.33 1027 10 16.0934 0 0
4:15 pm 16:15 Sunny 55 12.5 30 -1.3 39 39 ENE 7 11 30.33 1027 10 16.0934 0 0
4:35 pm 16:35 Sunny 55 12.5 30 -1.1 39 39 NE 5 7 30.33 1027 7 11.26538 0 0
4:55 pm 16:55 Sunny 54 12.3 28 -2.2 37 37 Calm 30.33 1027 10 16.0934 0 0
5:15 pm 17:15 Sunny 54 12.2 30 -1.2 40 40 NNE 5 7 30.33 1027 10 16.0934 0 0
5:35 pm 17:35 Sunny 53 11.8 31 -0.8 42 42 NNE 3 6 30.33 1027 10 16.0934 0 0
5:55 pm 17:55 Sunny 53 11.5 31 -0.8 43 43 Calm 30.3 1026 10 16.0934 0 0
6:15 pm 18:15 Sunny 51 10.4 32 -0.2 48 48 N 5 7 30.3 1026 10 16.0934 0 0
6:35 pm 18:35 Sunny 50 10.1 32 0.1 50 50 N 3 6 30.3 1026 10 16.0934 0 0
6:55 pm 18:55 Clear 48 8.9 35 1.6 61 61 Calm 30.3 1026 10 16.0934 0 0
7:15 pm 19:15 Clear 44 6.7 36 2.2 73 73 Calm 30.33 1027 10 16.0934 0 0
7:35 pm 19:35 Clear 43 6.3 34 0.9 69 69 NNE 5 7 30.3 1026 10 16.0934 0 0
7:55 pm 19:55 Clear 44 6.4 34 1 69 69 N 3 6 30.3 1026 10 16.0934 0 0
8:15 pm 20:15 Clear 43 5.9 34 1.1 72 72 Calm 30.33 1027 10 16.0934 0 0
8:35 pm 20:35 Clear 41 5.1 35 1.5 78 78 Calm 30.33 1027 10 16.0934 0 0
8:55 pm 20:55 Clear 41 5.2 33 0.8 74 74 Calm 30.36 1028 10 16.0934 0 0
9:15 pm 21:15 Clear 41 5.2 34 1.3 76 76 N 3 6 30.36 1028 10 16.0934 0 0
9:35 pm 21:35 Clear 40 4.7 32 0.1 72 72 N 5 7 30.36 1028 10 16.0934 0 0
9:55 pm 21:55 Clear 38 3.2 32 0 80 80 NNE 3 6 30.36 1028 10 16.0934 0 0
10:15 pm 22:15 Clear 38 3.3 33 0.5 82 82 NNE 3 6 30.36 1028 10 16.0934 0 0
10:35 pm 22:35 Clear 37 2.5 33 0.3 86 86 Calm 30.36 1028 10 16.0934 0 0
10:55 pm 22:55 Clear 37 2.5 32 0.1 84 84 N 3 6 30.36 1028 10 16.0934 0 0
11:15 pm 23:15 Clear 37 3 33 0.3 83 83 Calm 30.36 1028 10 16.0934 0 0
11:35 pm 23:35 Clear 36 2.3 31 -0.5 82 82 Calm 30.36 1028 10 16.0934 0 0
11:55 pm 23:55 Clear 36 2.3 33 0.3 87 87 Calm 30.36 1028 10 16.0934 0 0

Powered by AerisWeather